Simultaneous Nadir Overpasses (SNOs) Predictions

Prediction of SNOs between GOES-18 and NOAA-21 Satellite Orbit:

Table of predicted SNOs for the next 14.0 days since TLE Epoch: 10/5/2024
Index Date Time (GOES-18) GOES-18 Lat,Lon NOAA-21 Lat,Lon Distance(km) Time Diff (sec)
1 10/05/2024 10:31:44 -0.01,-136.99 -0.03,-136.80 21.21 80
2 10/07/2024 22:37:38 -0.00,-136.98 -0.14,-137.58 68.68 80
3 10/08/2024 22:16:15 0.00,-136.97 0.88,-133.05 446.35 80
4 10/10/2024 10:40:43 0.00,-136.94 0.33,-138.31 156.86 80
5 10/11/2024 10:19:20 -0.00,-136.93 -0.71,-133.79 357.76 80
6 10/12/2024 22:43:57 0.00,-136.91 -0.48,-139.09 248.81 80
7 10/13/2024 22:22:33 0.01,-136.89 0.51,-134.55 265.73 80
8 10/15/2024 10:47:01 0.00,-136.86 0.65,-139.82 337.73 80
9 10/16/2024 10:25:37 0.01,-136.84 -0.36,-135.29 176.91 80
10 10/17/2024 22:47:32 -0.02,-136.81 -0.90,-140.57 429.94 80
11 10/18/2024 22:31:27 -0.02,-136.78 0.13,-136.04 84.19 80
